Location: Unspecified
(0.0000°N, 0.0000°E)
Time: 07:08:14
(UTC+00:00)

Transit 4A - Pass Details

Date: 11 October 2023
Orbit: 864 x 979 km, 66.8° (Epoch: 05 December)

Event Time Altitude Azimuth Distance (km) Brightness Sun altitude
Rises 17:45:10 0° 13° (NNE) 3,557 10.7 0.4°
Reaches altitude 10° 17:48:53 10° 35° (NE) 2,592 9.9 -0.5°
Maximum altitude 17:52:13 15° 69° (ENE) 2,217 9.3 -1.4°
Drops below altitude 10° 17:55:30 10° 103° (ESE) 2,556 9.6 -2.2°
Sets 17:59:05 0° 125° (SE) 3,478 10.4 -3.1°
